SPACEBEE-28 (46948 NORAD) Tracking and Keplerian Element Data

This shows tracking and keplerian element data for the satellite.

Feedback or suggestion? Click here.




ElementValue
Catalog46948
NameSPACEBEE-28
Epoch Orbit894
Epoch Day17.95458025
Epoch Year2021
RAAN157.3119
Inclination97.3736
Eccentricity0.0016413
Argument of Perigee104.3077
Mean Anonmoly255.9981
Mean Motion15.20958139
Decay Rate3.733E-05
L11 46948U 20085V 21017.95458025 .00003733 00000-0 17108-3 0 9991
L22 46948 97.3736 157.3119 0016413 104.3077 255.9981 15.20958139 8945

Live tracking and technical data element details for SPACEBEE-28 (NORAD 46948). SPACEBEE-28 can be tracked NOW for your location showing map with azimuth and elevation plus other details from your city location.

Track the satellite on the map from your city or location and see movement details for azimuth, elevation, latitude, longitude, range, height, and movement on the map or in text.







IsCatalogInMostPopularTable: catalog: 46948, numindb: 19
Update: records affected: 1



GetName: 46948 SPACEBEE-28

Hit Count: updated at: Mon, 18 Jan 2021 16:46:20 GMT